Home > Weather > Pasadena > Past weeks

Flag for USA Weather for the Past 2 Weeks in Pasadena, California, USA

Now
61 °F

Clear.


Feels Like: 61 °F
Forecast: 55 / 71 °F
Wind: 8 mph from Southeast

Location: Bob Hope Airport

Current Time: May 3, 2016 at 10:19:46 PM

Latest Report: May 3, 2016 at 8:53 PM


Visibility: 10 mi

Pressure: 29.90 "Hg

Humidity: 75%

Dew Point: 53 °F

Location of PasadenaLocation

Historic Weather in Pasadena — Graph

°F

Pasadena Temperature Yesterday

Maximum temperature yesterday: 81 °F (at 2:53 PM)
Minimum temperature yesterday: 55 °F (at 5:53 AM)
Average temperature yesterday: 66 °F

High & Low Weather Summary for the Past Weeks

 TemperatureHumidityPressure
High88 °F (Apr 19, 1:53 PM)84% (May 2, 4:53 AM)30.01 "Hg (May 2, 4:53 AM)
Low47 °F (Apr 26, 5:53 AM)7% (Apr 19, 4:53 PM)29.70 "Hg (Apr 27, 7:53 PM)
Average64 °F49%29.88 "Hg
* Reported Apr 18 8:53 PM — May 3 8:53 PM, Pasadena, Weather by CustomWeather, © 2016

Note: Actual official high and low records may vary slightly from our data, if they occured in-between our weather recording intervals... More about our weather records

Advertising

Pasadena Weather History for the Previous 24 Hours

Scroll right to see more
 ConditionsComfort  
Time TempWeatherWind HumidityBarometerVisibility
8:53 PM
Tue, May 3
61 °FClear.8 mph75%29.90 "Hg10 mi
7:53 PM64 °FSunny.8 mph68%29.88 "Hg10 mi
6:53 PM73 °FSunny.9 mph48%29.84 "Hg10 mi
5:53 PM77 °FSunny.7 mph44%29.84 "Hg10 mi
4:53 PM81 °FSunny.8 mph33%29.85 "Hg10 mi
3:53 PM85 °FSunny.8 mph21%29.85 "Hg10 mi
2:53 PM84 °FSunny.5 mph26%29.88 "Hg10 mi
1:53 PM83 °FSunny.9 mph26%29.89 "Hg10 mi
12:53 PM83 °FSunny.7 mph33%29.90 "Hg10 mi
11:53 AM80 °FSunny.9 mph34%29.92 "Hg10 mi
10:53 AM75 °FSunny.No wind42%29.93 "Hg10 mi
9:53 AM72 °FSunny.No wind48%29.94 "Hg10 mi
8:53 AM66 °FSunny.No wind59%29.94 "Hg10 mi
7:53 AM62 °FSunny.No wind70%29.94 "Hg10 mi
6:53 AM60 °FClear.No wind75%29.93 "Hg10 mi
5:53 AM59 °FClear.No wind75%29.91 "Hg10 mi
4:53 AM59 °FClear.No wind69%29.91 "Hg10 mi
3:53 AM60 °FClear.No wind69%29.90 "Hg10 mi
2:53 AM60 °FClear.No wind72%29.92 "Hg10 mi
1:53 AM60 °FClear.3 mph72%29.93 "Hg10 mi
12:53 AM60 °FClear.6 mph75%29.95 "Hg10 mi
11:53 PM
Mon, May 2
60 °FClear.7 mph75%29.95 "Hg10 mi
10:53 PM62 °FClear.10 mph73%29.95 "Hg10 mi
Weather by CustomWeather, © 2016

See weather overviewHow to use our weather pages